Location: Biltmore Gardens
(41.6070°N, 83.4666°W)
Time: 14:20:21
(UTC+00:00)

Cosmos 1544 - Pass Details

Date: 14 July 2020
Orbit: 473 x 490 km, 82.5° (Epoch: 04 August)

Event Time Altitude Azimuth Distance (km) Brightness Sun altitude
Exits shadow 09:17:17 11° 210° (SSW) 1,548 5.0 -9.3°
Maximum altitude 09:20:28 41° 281° (W) 694 3.6 -8.8°
Drops below altitude 10° 09:23:54 10° 354° (N) 1,647 6.2 -8.3°
Sets 09:26:05 0° 1° (N) 2,531 7.3 -8.0°
